| time (UTC) | temp F | wind direction | speed MPH | gust MPH | rain 1hr in | rain 24hr in | rain mn in | humidity % | barometer mb |
| 20260504081546 | 48 | 36 | 16.0 | 26.0 | 0.00 | 0.00 | 0.00 | 54 | 1001.3 |
| 20260504050013 | 57 | 50 | 22.0 | 29.0 | 0.00 | 0.00 | 0.00 | 38 | 996.3 |
| 20260504044514 | 57 | 40 | 15.0 | 21.0 | 0.00 | 0.00 | 0.00 | 37 | 995.8 |
| 20260504043013 | 57 | 35 | 14.0 | 18.0 | 0.00 | 0.00 | 0.00 | 36 | 995.5 |
| 20260504041512 | 58 | 48 | 13.0 | 17.0 | 0.00 | 0.00 | 0.00 | 36 | 995.3 |
| 20260504040014 | 58 | 46 | 11.0 | 18.0 | 0.00 | 0.00 | 0.00 | 36 | 995.0 |
| 20260504034518 | 59 | 46 | 12.0 | 18.0 | 0.00 | 0.00 | 0.00 | 35 | 994.7 |
| 20260504033009 | 60 | 38 | 15.0 | 21.0 | 0.00 | 0.00 | 0.00 | 35 | 994.2 |
| 20260504031509 | 61 | 50 | 16.0 | 22.0 | 0.00 | 0.00 | 0.00 | 33 | 993.9 |
| 20260504030007 | 62 | 50 | 13.0 | 21.0 | 0.00 | 0.00 | 0.00 | 30 | 993.7 |
| 20260504024509 | 63 | 49 | 11.0 | 17.0 | 0.00 | 0.00 | 0.00 | 26 | 993.4 |
| 20260504023007 | 64 | 34 | 3.0 | 5.0 | 0.00 | 0.00 | 0.00 | 23 | 993.2 |
| 20260504021505 | 66 | 28 | 5.0 | 9.0 | 0.00 | 0.00 | 0.00 | 22 | 993.3 |
| 20260504020004 | 69 | 29 | 9.0 | 13.0 | 0.00 | 0.00 | 0.00 | 21 | 993.3 |
| 20260504014504 | 70 | 10 | 7.0 | 13.0 | 0.00 | 0.00 | 0.00 | 20 | 993.4 |
| 20260504013003 | 72 | 355 | 11.0 | 16.0 | 0.00 | 0.00 | 0.00 | 19 | 993.3 |
| 20260504011502 | 73 | 355 | 12.0 | 17.0 | 0.00 | 0.00 | 0.00 | 19 | 993.4 |
| 20260504010100 | 73 | 5 | 10.0 | 18.0 | 0.00 | 0.00 | 0.00 | 18 | 993.5 |
| 20260504004559 | 74 | 338 | 14.0 | 19.0 | 0.00 | 0.00 | 0.00 | 18 | 993.6 |
| 20260504003057 | 75 | 336 | 13.0 | 22.0 | 0.00 | 0.00 | 0.00 | 18 | 993.7 |
| 20260504001555 | 75 | 360 | 8.0 | 19.0 | 0.00 | 0.00 | 0.00 | 17 | 993.8 |
| 20260504000134 | 75 | 321 | 11.0 | 19.0 | 0.00 | 0.00 | 0.00 | 17 | 994.0 |
| 20260503234553 | 75 | 360 | 14.0 | 18.0 | 0.00 | 0.00 | 0.00 | 17 | 993.9 |
| 20260503233051 | 75 | 360 | 10.0 | 15.0 | 0.00 | 0.00 | 0.00 | 17 | 994.1 |
| 20260503231551 | 75 | 294 | 7.0 | 17.0 | 0.00 | 0.00 | 0.00 | 17 | 994.3 |
| 20260503230053 | 75 | 319 | 12.0 | 21.0 | 0.00 | 0.00 | 0.00 | 17 | 994.4 |
| 20260503224546 | 75 | 309 | 9.0 | 17.0 | 0.00 | 0.00 | 0.00 | 18 | 994.6 |
| 20260503223045 | 75 | 336 | 10.0 | 22.0 | 0.00 | 0.00 | 0.00 | 17 | 994.8 |
| 20260503221543 | 75 | 348 | 9.0 | 19.0 | 0.00 | 0.00 | 0.00 | 18 | 995.1 |
| 20260503220040 | 74 | 304 | 7.0 | 14.0 | 0.00 | 0.00 | 0.00 | 20 | 995.2 |
| 20260503214537 | 74 | 313 | 15.0 | 20.0 | 0.00 | 0.00 | 0.00 | 18 | 995.5 |
| 20260503213034 | 74 | 335 | 12.0 | 19.0 | 0.00 | 0.00 | 0.00 | 18 | 995.6 |
| 20260503211531 | 73 | 250 | 14.0 | 18.0 | 0.00 | 0.00 | 0.00 | 18 | 996.1 |
| 20260503210028 | 73 | 308 | 10.0 | 20.0 | 0.00 | 0.00 | 0.00 | 18 | 996.2 |
| 20260503204527 | 73 | 336 | 5.0 | 17.0 | 0.00 | 0.00 | 0.00 | 19 | 996.3 |
| 20260503203031 | 73 | 323 | 8.0 | 18.0 | 0.00 | 0.00 | 0.00 | 19 | 996.8 |
| 20260503201521 | 72 | 321 | 7.0 | 16.0 | 0.00 | 0.00 | 0.00 | 19 | 996.9 |
| 20260503200018 | 72 | 283 | 14.0 | 21.0 | 0.00 | 0.00 | 0.00 | 19 | 997.2 |
| 20260503194516 | 71 | 285 | 14.0 | 21.0 | 0.00 | 0.00 | 0.00 | 21 | 997.4 |
| 20260503193013 | 72 | 300 | 16.0 | 23.0 | 0.00 | 0.00 | 0.00 | 20 | 997.7 |
| 20260503191511 | 71 | 275 | 11.0 | 20.0 | 0.00 | 0.00 | 0.00 | 20 | 997.9 |
| 20260503190007 | 71 | 319 | 12.0 | 24.0 | 0.00 | 0.00 | 0.00 | 19 | 998.0 |
| 20260503184512 | 70 | 285 | 13.0 | 22.0 | 0.00 | 0.00 | 0.00 | 21 | 998.2 |
| 20260503183002 | 71 | 337 | 9.0 | 20.0 | 0.00 | 0.00 | 0.00 | 20 | 998.3 |
| 20260503181600 | 70 | 295 | 12.0 | 20.0 | 0.00 | 0.00 | 0.00 | 20 | 998.5 |
| 20260503180058 | 70 | 322 | 10.0 | 16.0 | 0.00 | 0.00 | 0.00 | 22 | 998.7 |
| 20260503174553 | 69 | 295 | 11.0 | 19.0 | 0.00 | 0.00 | 0.00 | 24 | 999.0 |
| 20260503173050 | 68 | 327 | 10.0 | 18.0 | 0.00 | 0.00 | 0.00 | 25 | 999.1 |
| 20260503171607 | 66 | 296 | 8.0 | 15.0 | 0.00 | 0.00 | 0.00 | 29 | 999.2 |